Daviess Cnty AP, Washington,, IN

4:39 PM EST on December 08, 2019 (GMT -0500)
Daviess County

Weather History for KDCY - October, 2019

Change the Weather History Date:

Tuesday, October 15, 2019

  Actual Average (WUND) Record (WUND)
Temperature  
Mean Temperature 56 °F -  
Max Temperature 73 °F - - (-1)
Min Temperature 39 °F - - (-1)
Degree Days  
Heating Degree Days 9    
Growing Degree Days 6 (Base 50)    
Moisture  
Dew Point 49 °F    
Average Humidity 74    
Maximum Humidity 99    
Minimum Humidity 47    
Precipitation  
Precipitation 0.00 in - - ()
Sea Level Pressure  
Sea Level Pressure 29.94 in    
Wind  
Wind Speed 4 mph (SSW)    
Max Wind Speed 13 mph    
Max Gust Speed 21 mph    
Visibility 10 miles    
Events Rain , Thunderstorm    
Averages and records for this station are not official NWS values.
T = Trace of Precipitation, MM = Missing Value Source: NWS Daily Summary

Daily Weather History Graph

Daily Weather History Graph

Search for Another Location

Airport or City:

Astronomy

Oct. 15, 2019 Rise Set
Actual Time 7:57 AM EDT 7:10 PM EDT
Civil Twilight 7:30 AM EDT 7:37 PM EDT
Nautical Twilight 6:59 AM EDT 8:08 PM EDT
Astronomical Twilight 6:29 AM EDT 8:38 PM EDT
Moon 8:31 PM EDT (10/15) 9:27 AM EDT (10/15)
Length of Visible Light 12h 06m
Length of Day
11h 12m
Full, 97% of the Moon is Illuminated
Oct 15
Full
Oct 21
Last Quarter
Oct 27
New
Nov 4
First Quarter
Nov 12
Full

Hourly Weather History & Observations

Time (EDT) Temp. Windchill Dew Point Humidity Pressure Visibility Wind Dir Wind Speed Gust Speed Precip Events Conditions
12:15 AM 41.2 °F - 37.6 °F 87% 30.08 in 10.0 mi Calm Calm - N/A   Clear
12:35 AM 41.0 °F - 38.1 °F 89% 30.08 in 10.0 mi Calm Calm - N/A   Clear
12:55 AM 40.1 °F - 38.7 °F 95% 30.07 in 10.0 mi Calm Calm - N/A   Clear
1:15 AM 40.3 °F - 39.0 °F 95% 30.07 in 10.0 mi Calm Calm - N/A   Clear
1:35 AM 40.1 °F - 37.9 °F 92% 30.07 in 10.0 mi Calm Calm - N/A   Clear
1:55 AM 39.7 °F - 36.9 °F 89% 30.06 in 10.0 mi Calm Calm - N/A   Clear
2:15 AM 39.7 °F - 37.0 °F 90% 30.06 in 10.0 mi Calm Calm - N/A   Clear
2:35 AM 39.6 °F - 38.1 °F 95% 30.06 in 10.0 mi Calm Calm - N/A   Clear
2:55 AM 40.1 °F 38.0 °F 37.6 °F 91% 30.06 in 10.0 mi South 3.5 mph - N/A   Clear
3:15 AM 41.0 °F 39.0 °F 38.3 °F 90% 30.06 in 10.0 mi SSE 3.5 mph - N/A   Clear
3:35 AM 40.8 °F - 38.3 °F 91% 30.05 in 10.0 mi Calm Calm - N/A   Clear
3:55 AM 41.5 °F 39.6 °F 37.6 °F 86% 30.05 in 10.0 mi South 3.5 mph - N/A   Clear
4:30 AM 41.2 °F 39.2 °F 37.6 °F 87% 30.05 in 10.0 mi SSE 3.5 mph - N/A   Clear
5:15 AM 40.8 °F - 36.7 °F 85% 30.03 in 10.0 mi Calm Calm - N/A   Clear
5:35 AM 41.9 °F - 36.5 °F 81% 30.03 in 10.0 mi Calm Calm - N/A   Clear
5:55 AM 42.1 °F - 36.9 °F 82% 30.04 in 10.0 mi Calm Calm - N/A   Clear
6:15 AM 41.9 °F 40.0 °F 36.1 °F 80% 30.03 in 10.0 mi SSE 3.5 mph - N/A   Clear
6:35 AM 42.1 °F 40.2 °F 36.5 °F 81% 30.03 in 10.0 mi SE 3.5 mph - N/A   Clear
6:55 AM 39.7 °F 36.5 °F 36.3 °F 88% 30.04 in 10.0 mi SSE 4.6 mph - N/A   Clear
7:15 AM 41.0 °F 39.0 °F 37.0 °F 86% 30.03 in 10.0 mi SSE 3.5 mph - N/A   Clear
7:35 AM 41.2 °F 38.2 °F 36.7 °F 84% 30.04 in 10.0 mi SSE 4.6 mph - N/A   Clear
7:55 AM 42.1 °F 39.2 °F 37.4 °F 83% 30.03 in 10.0 mi SE 4.6 mph - N/A   Clear
8:15 AM 40.1 °F 36.9 °F 36.9 °F 88% 30.02 in 10.0 mi SSE 4.6 mph - N/A   Clear
8:35 AM 43.9 °F 40.5 °F 40.6 °F 88% 30.01 in 10.0 mi SSE 5.8 mph - N/A   Clear
8:55 AM 47.1 °F - 41.9 °F 82% 30.01 in 10.0 mi SE 3.5 mph - N/A   Clear
9:15 AM 49.8 °F - 42.8 °F 77% 30.02 in 10.0 mi SSE 5.8 mph - N/A   Clear
9:35 AM 52.5 °F - 44.6 °F 74% 30.01 in 10.0 mi South 8.1 mph - N/A   Clear
9:50 AM 54.7 °F - 45.3 °F 71% 30.01 in 10.0 mi SSE 8.1 mph - N/A   Clear
10:15 AM 57.9 °F - 45.5 °F 63% 30.00 in 10.0 mi South 9.2 mph - N/A   Clear
10:35 AM 59.5 °F - 46.0 °F 61% 29.99 in 10.0 mi SSE 9.2 mph - N/A   Clear
10:55 AM 61.2 °F - 47.1 °F 60% 29.98 in 10.0 mi South 9.2 mph - N/A   Clear
11:15 AM 63.7 °F - 48.6 °F 58% 29.98 in 10.0 mi SSW 9.2 mph - N/A   Clear
11:35 AM 65.1 °F - 49.5 °F 57% 29.97 in 10.0 mi South 10.4 mph - N/A   Clear
11:50 AM 66.9 °F - 50.2 °F 55% 29.97 in 10.0 mi South 9.2 mph - N/A   Clear
12:15 PM 68.2 °F - 50.7 °F 54% 29.95 in 10.0 mi SSW 8.1 mph - N/A   Clear
12:35 PM 69.8 °F - 50.7 °F 51% 29.95 in 10.0 mi SSW 10.4 mph - N/A   Clear
12:55 PM 70.5 °F - 50.9 °F 50% 29.93 in 10.0 mi SW 10.4 mph 18.4 mph N/A   Clear
1:15 PM 71.6 °F - 50.9 °F 48% 29.92 in 10.0 mi South 9.2 mph 17.3 mph N/A   Clear
1:35 PM 72.1 °F - 51.4 °F 48% 29.92 in 10.0 mi SW 10.4 mph 17.3 mph N/A   Scattered Clouds
1:55 PM 73.2 °F - 52.0 °F 47% 29.91 in 10.0 mi SW 12.7 mph 20.7 mph N/A   Scattered Clouds
2:10 PM 71.4 °F - 52.2 °F 51% 29.90 in 10.0 mi SW 10.4 mph - N/A   Mostly Cloudy
2:35 PM 71.6 °F - 52.7 °F 51% 29.89 in 10.0 mi SW 9.2 mph - N/A   Overcast
2:50 PM 71.1 °F - 52.9 °F 53% 29.88 in 10.0 mi SSW 9.2 mph - N/A   Overcast
3:15 PM 71.1 °F - 53.6 °F 54% 29.87 in 10.0 mi SW 6.9 mph - N/A   Overcast
3:35 PM 71.6 °F - 54.3 °F 54% 29.86 in 10.0 mi SSW 9.2 mph - N/A   Overcast
3:55 PM 72.1 °F - 54.9 °F 54% 29.85 in 10.0 mi SSW 9.2 mph - N/A   Overcast
4:10 PM 72.5 °F - 55.8 °F 56% 29.85 in 10.0 mi SSW 9.2 mph - N/A   Overcast
4:35 PM 72.5 °F - 56.5 °F 57% 29.84 in 10.0 mi SSW 8.1 mph - N/A   Overcast
4:55 PM 72.1 °F - 57.2 °F 59% 29.84 in 10.0 mi SW 5.8 mph - N/A   Overcast
5:15 PM 71.4 °F - 57.4 °F 61% 29.84 in 10.0 mi WSW 6.9 mph - N/A   Overcast
5:35 PM 71.1 °F - 57.4 °F 62% 29.83 in 10.0 mi SSW 6.9 mph - N/A   Overcast
5:55 PM 71.6 °F - 57.7 °F 62% 29.82 in 10.0 mi SSW 8.1 mph - N/A   Overcast
6:15 PM 70.9 °F - 58.1 °F 64% 29.82 in 10.0 mi SW 8.1 mph - N/A   Overcast
6:35 PM 70.7 °F - 58.5 °F 65% 29.82 in 10.0 mi SW 5.8 mph - N/A   Overcast
6:55 PM 70.3 °F - 59.0 °F 67% 29.83 in 10.0 mi SW 6.9 mph - N/A   Overcast
7:15 PM 69.8 °F - 59.0 °F 68% 29.83 in 10.0 mi SW 8.1 mph - N/A   Overcast
7:35 PM 69.1 °F - 59.2 °F 71% 29.83 in 10.0 mi WSW 8.1 mph - N/A   Overcast
7:55 PM 69.1 °F - 59.4 °F 71% 29.83 in 10.0 mi WSW 8.1 mph - N/A   Overcast
8:15 PM 68.4 °F - 59.5 °F 73% 29.83 in 10.0 mi WSW 8.1 mph - N/A Rain , Thunderstorm Light Thunderstorms and Rain
8:35 PM 67.3 °F - 60.1 °F 78% 29.82 in 10.0 mi WSW 4.6 mph - N/A   Overcast
8:55 PM 67.3 °F - 59.9 °F 77% 29.83 in 10.0 mi WSW 5.8 mph - N/A   Overcast
9:15 PM 67.1 °F - 59.9 °F 78% 29.82 in 10.0 mi West 8.1 mph - N/A Thunderstorm Overcast
9:35 PM 66.4 °F - 59.9 °F 80% 29.82 in 10.0 mi SW 5.8 mph - N/A   Overcast
9:55 PM 65.8 °F - 59.9 °F 81% 29.80 in 10.0 mi SSW 6.9 mph - N/A   Mostly Cloudy
10:15 PM 64.4 °F - 59.9 °F 85% 29.80 in 10.0 mi WSW 5.8 mph - N/A   Scattered Clouds
10:35 PM 62.6 °F - 59.9 °F 91% 29.81 in 10.0 mi WSW 3.5 mph - N/A   Clear
10:55 PM 61.7 °F - 61.0 °F 97% 29.81 in 10.0 mi WSW 5.8 mph - N/A   Scattered Clouds
11:15 PM 63.0 °F - 62.6 °F 99% 29.81 in 10.0 mi SW 6.9 mph - N/A   Mostly Cloudy
11:35 PM 64.0 °F - 63.0 °F 96% 29.81 in 10.0 mi SW 8.1 mph - N/A   Overcast